THOR ABLESTAR DEB, 330

Orbit data source: Space-Track

THOR ABLESTAR DEB, 330 is space debris in LEO originally from a launch on Thu, 29 Jun 1961 UTC launched from the Air Force Eastern Test Range (AFETR). Debris objects in space refer to the collection of defunct objects orbiting the Earth. Examples of debris include non-operational satellites, rocket bodies, and fragments generated from explosions, collisions, or faulty payload assembly.

Loading next visibility...
Identifier
330, 1961-015DG
Orbit
LEO
Country
Flag of USUS
Related business
Manufacturer
Unknown
Mission
Spacecraft
Bus & Motor
Unknown
Mass
Unknown
Launch date (UTC)
1961-06-29 (64 years ago)
Launch vehicle
Unknown
Launch site
Air Force Eastern Test Range (AFETR)
Object type
Payload
Rocket body
Debris
Shape & HBR
Unknown shape, 0.1 m
Radar Cross Section
Small (<0.1 m²)

Expand to show TLE details & history
Last TLE update: 1 day ago

TLE from 1 day ago
0 THOR ABLESTAR DEB
1 00330U 61015DG  25305.98261060  .00000896  00000-0  58274-3 0  9998
2 00330  66.9772 149.1877 0053867 285.7889  73.7263 14.06311625264759
Epoch: 2025-11-01T23:34Z
TLE epoch observation values (Epoch: 2025-11-01T23:34:57.555Z)
Latitude
-0.00007°
Longitude
113.94298°
Altitude
863.375 km
Speed
7.427 km/s
True Right ascension
09h 56m 45s
True Declination
0° 00' 00"
Sunlit
Object was in daylight at epoch
Visualization orbit readout
Latitude
Unknown
Longitude
Unknown
Altitude
Unknown
Speed
Unknown
Apparent Right ascension
Unknown
Apparent Declination
Unknown
Sunlit
N/A
Visualization observer readout
Local Sidereal Time
19:07:49
Azimuth
Unknown
Elevation
Unknown
Doppler factor
Unknown
Orbital elements
Apogee altitude
909.428 km
Perigee altitude
831.336 km
Semi-major axis
7,248.519 km
Eccentricity
0.00539
Inclination
66.9772°
RAAN
149.1877°
Arg. of periapsis
285.7889°
True anomaly
74.31995°
Mean anomaly
73.7263°
Eccentric anomaly
74.02301°
Mean motion
3.51697 °/min
Orbital period
102.36 mins
BSTAR
0.00058274
Loading maneuver chart data...
Computing Atmospheric mass density...

Documentation

Showing up to 5 results
|